User: anonymous   Login
Location: Poprad
(49.0500°N, 20.3000°E)
Time: 21:21:15
(UTC+02:00)
Language:

RS-44 - Orbit

View from above orbital plane
View from above orbital plane
View from above satellite
View from above satellite

Ground track
Ground track

The orbit data is extracted from the following two-line orbital elements,

1 44909U 19096E   24113.44682051  .00000057  00000-0  18029-3 0  9997
2 44909  82.5189 141.8160 0217502 181.2275 178.8322 12.79728824201896
Epoch (UTC): 22 April 2024 10:43:25
Eccentricity: 0.0217502
inclination: 82.5189°
perigee height: 1174 km
apogee height: 1510 km
right ascension of ascending node: 141.8160°
argument of perigee: 181.2275°
revolutions per day: 12.79728824
mean anomaly at epoch: 178.8322°
orbit number at epoch: 20189

The dashed part of the orbit path shows where the satellite is in the earth's shadow,  

DLR